Year,Month,Day,Hour,Minute,Value (Times are PST for barometer in hPa)
2012,12,17,00,00,979.41
2012,12,17,00,01,979.48
2012,12,17,00,02,979.48
2012,12,17,00,03,979.45
2012,12,17,00,04,979.45
2012,12,17,00,05,979.45
2012,12,17,00,06,979.45
2012,12,17,00,07,979.48
2012,12,17,00,08,979.41
2012,12,17,00,09,979.41
2012,12,17,00,10,979.41
2012,12,17,00,11,979.41
2012,12,17,00,12,979.38
2012,12,17,00,13,979.31
2012,12,17,00,14,979.34
2012,12,17,00,15,979.31
2012,12,17,00,16,979.28
2012,12,17,00,17,979.31
2012,12,17,00,18,979.31
2012,12,17,00,19,979.31
2012,12,17,00,20,979.28
2012,12,17,00,21,979.21
2012,12,17,00,22,979.17
2012,12,17,00,23,979.21
2012,12,17,00,24,979.21
2012,12,17,00,25,979.18
2012,12,17,00,26,979.28
2012,12,17,00,27,979.31
2012,12,17,00,28,979.31
2012,12,17,00,29,979.38
2012,12,17,00,30,979.34
2012,12,17,00,31,979.34
2012,12,17,00,32,979.34
2012,12,17,00,33,979.34
2012,12,17,00,34,979.34
2012,12,17,00,35,979.38
2012,12,17,00,36,979.34
2012,12,17,00,37,979.38
2012,12,17,00,38,979.38
2012,12,17,00,39,979.41
2012,12,17,00,40,979.41
2012,12,17,00,41,979.41
2012,12,17,00,42,979.41
2012,12,17,00,43,979.41
2012,12,17,00,44,979.48
2012,12,17,00,45,979.45
2012,12,17,00,46,979.48
2012,12,17,00,47,979.48
2012,12,17,00,48,979.48
2012,12,17,00,49,979.48
2012,12,17,00,50,979.48
2012,12,17,00,51,979.51
2012,12,17,00,52,979.51
2012,12,17,00,53,979.55
2012,12,17,00,54,979.55
2012,12,17,00,55,979.58
2012,12,17,00,56,979.58
2012,12,17,00,57,979.55
2012,12,17,00,58,979.55
2012,12,17,00,59,979.51
2012,12,17,01,00,979.45
2012,12,17,01,01,979.51
2012,12,17,01,02,979.48
2012,12,17,01,03,979.48
2012,12,17,01,04,979.45
2012,12,17,01,05,979.45
2012,12,17,01,06,979.41
2012,12,17,01,07,979.48
2012,12,17,01,08,979.45
2012,12,17,01,09,979.51
2012,12,17,01,10,979.51
2012,12,17,01,11,979.51
2012,12,17,01,12,979.51
2012,12,17,01,13,979.48
2012,12,17,01,14,979.51
2012,12,17,01,15,979.48
2012,12,17,01,16,979.48
2012,12,17,01,17,979.45
2012,12,17,01,18,979.45
2012,12,17,01,19,979.34
2012,12,17,01,20,979.34
2012,12,17,01,21,979.34
2012,12,17,01,22,979.28
2012,12,17,01,23,979.21
2012,12,17,01,24,979.28
2012,12,17,01,25,979.34
2012,12,17,01,26,979.38
2012,12,17,01,27,979.38
2012,12,17,01,28,979.45
2012,12,17,01,29,979.41
2012,12,17,01,30,979.45
2012,12,17,01,31,979.45
2012,12,17,01,32,979.46
2012,12,17,01,33,979.55
2012,12,17,01,34,979.48
2012,12,17,01,35,979.51
2012,12,17,01,36,979.51
2012,12,17,01,37,979.58
2012,12,17,01,38,979.61
2012,12,17,01,39,979.55
2012,12,17,01,40,979.61
2012,12,17,01,41,979.61
2012,12,17,01,42,979.58
2012,12,17,01,43,979.58
2012,12,17,01,44,979.58
2012,12,17,01,45,979.58
2012,12,17,01,46,979.55
2012,12,17,01,47,979.48
2012,12,17,01,48,979.48
2012,12,17,01,49,979.48
2012,12,17,01,50,979.45
2012,12,17,01,51,979.41
2012,12,17,01,52,979.41
2012,12,17,01,53,979.38
2012,12,17,01,54,979.41
2012,12,17,01,55,979.38
2012,12,17,01,56,979.38
2012,12,17,01,57,979.34
2012,12,17,01,58,979.34
2012,12,17,01,59,979.34
2012,12,17,02,00,979.34
2012,12,17,02,01,979.31
2012,12,17,02,02,979.38
2012,12,17,02,03,979.34
2012,12,17,02,04,979.38
2012,12,17,02,05,979.41
2012,12,17,02,06,979.45
2012,12,17,02,07,979.45
2012,12,17,02,08,979.48
2012,12,17,02,09,979.48
2012,12,17,02,10,979.48
2012,12,17,02,11,979.51
2012,12,17,02,12,979.55
2012,12,17,02,13,979.51
2012,12,17,02,14,979.55
2012,12,17,02,15,979.58
2012,12,17,02,16,979.55
2012,12,17,02,17,979.58
2012,12,17,02,18,979.58
2012,12,17,02,19,979.61
2012,12,17,02,20,979.65
2012,12,17,02,21,979.61
2012,12,17,02,22,979.65
2012,12,17,02,23,979.68
2012,12,17,02,24,979.61
2012,12,17,02,25,979.68
2012,12,17,02,26,979.65
2012,12,17,02,27,979.68
2012,12,17,02,28,979.72
2012,12,17,02,29,979.78
2012,12,17,02,30,979.78
2012,12,17,02,31,979.78
2012,12,17,02,32,979.78
2012,12,17,02,33,979.85
2012,12,17,02,34,979.85
2012,12,17,02,35,979.89
2012,12,17,02,36,979.92
2012,12,17,02,37,979.99
2012,12,17,02,38,979.92
2012,12,17,02,39,979.89
2012,12,17,02,40,979.89
2012,12,17,02,41,979.92
2012,12,17,02,42,979.99
2012,12,17,02,43,980.06
2012,12,17,02,44,980.09
2012,12,17,02,45,980.12
2012,12,17,02,46,980.12
2012,12,17,02,47,980.12
2012,12,17,02,48,980.19
2012,12,17,02,49,980.19
2012,12,17,02,50,980.22
2012,12,17,02,51,980.16
2012,12,17,02,52,980.19
2012,12,17,02,53,980.16
2012,12,17,02,54,980.16
2012,12,17,02,55,980.16
2012,12,17,02,56,980.12
2012,12,17,02,57,980.12
2012,12,17,02,58,980.16
2012,12,17,02,59,980.19
2012,12,17,03,00,980.16
2012,12,17,03,01,980.19
2012,12,17,03,02,980.22
2012,12,17,03,03,980.26
2012,12,17,03,04,980.22
2012,12,17,03,05,980.22
2012,12,17,03,06,980.26
2012,12,17,03,07,980.29
2012,12,17,03,08,980.29
2012,12,17,03,09,980.33
2012,12,17,03,10,980.33
2012,12,17,03,11,980.33
2012,12,17,03,12,980.39
2012,12,17,03,13,980.43
2012,12,17,03,14,980.46
2012,12,17,03,15,980.50
2012,12,17,03,16,980.56
2012,12,17,03,17,980.56
2012,12,17,03,18,980.63
2012,12,17,03,19,980.66
2012,12,17,03,20,980.77
2012,12,17,03,21,980.73
2012,12,17,03,22,980.77
2012,12,17,03,23,980.80
2012,12,17,03,24,980.80
2012,12,17,03,25,980.83
2012,12,17,03,26,980.87
2012,12,17,03,27,980.97
2012,12,17,03,28,981.00
2012,12,17,03,29,981.07
2012,12,17,03,30,981.14
2012,12,17,03,31,981.10
2012,12,17,03,32,981.14
2012,12,17,03,33,981.27
2012,12,17,03,34,981.34
2012,12,17,03,35,981.44
2012,12,17,03,36,981.48
2012,12,17,03,37,981.55
2012,12,17,03,38,981.65
2012,12,17,03,39,981.71
2012,12,17,03,40,981.71
2012,12,17,03,41,981.75
2012,12,17,03,42,981.75
2012,12,17,03,43,981.78
2012,12,17,03,44,981.82
2012,12,17,03,45,981.89
2012,12,17,03,46,982.02
2012,12,17,03,47,982.15
2012,12,17,03,48,982.12
2012,12,17,03,49,982.09
2012,12,17,03,50,982.09
2012,12,17,03,51,982.12
2012,12,17,03,52,982.19
2012,12,17,03,53,982.26
2012,12,17,03,54,982.33
2012,12,17,03,55,982.46
2012,12,17,03,56,982.49
2012,12,17,03,57,982.53
2012,12,17,03,58,982.56
2012,12,17,03,59,982.63
2012,12,17,04,00,982.70
2012,12,17,04,01,982.81
2012,12,17,04,02,982.97
2012,12,17,04,03,983.05
2012,12,17,04,04,983.21
2012,12,17,04,05,983.34
2012,12,17,04,06,983.37
2012,12,17,04,07,983.34
2012,12,17,04,08,983.44
2012,12,17,04,09,983.41
2012,12,17,04,10,983.44
2012,12,17,04,11,983.44
2012,12,17,04,12,983.51
2012,12,17,04,13,983.58
2012,12,17,04,14,983.61
2012,12,17,04,15,983.58
2012,12,17,04,16,983.61
2012,12,17,04,17,983.64
2012,12,17,04,18,983.71
2012,12,17,04,19,983.71
2012,12,17,04,20,983.81
2012,12,17,04,21,983.85
2012,12,17,04,22,983.85
2012,12,17,04,23,983.88
2012,12,17,04,24,983.95
2012,12,17,04,25,983.98
2012,12,17,04,26,984.05
2012,12,17,04,27,984.08
2012,12,17,04,28,984.15
2012,12,17,04,29,984.19
2012,12,17,04,30,984.26
2012,12,17,04,31,984.36
2012,12,17,04,32,984.39
2012,12,17,04,33,984.42
2012,12,17,04,34,984.56
2012,12,17,04,35,984.57
2012,12,17,04,36,984.73
2012,12,17,04,37,984.83
2012,12,17,04,38,984.86
2012,12,17,04,39,984.90
2012,12,17,04,40,984.93
2012,12,17,04,41,985.03
2012,12,17,04,42,985.07
2012,12,17,04,43,985.20
2012,12,17,04,44,985.27
2012,12,17,04,45,985.34
2012,12,17,04,46,985.37
2012,12,17,04,47,985.44
2012,12,17,04,48,985.51
2012,12,17,04,49,985.54
2012,12,17,04,50,985.57
2012,12,17,04,51,985.62
2012,12,17,04,52,985.78
2012,12,17,04,53,985.81
2012,12,17,04,54,985.88
2012,12,17,04,55,985.91
2012,12,17,04,56,985.92
2012,12,17,04,57,986.02
2012,12,17,04,58,986.05
2012,12,17,04,59,986.12
2012,12,17,05,00,986.12
2012,12,17,05,01,986.25
2012,12,17,05,02,986.22
2012,12,17,05,03,986.26
2012,12,17,05,04,986.35
2012,12,17,05,05,986.35
2012,12,17,05,06,986.35
2012,12,17,05,07,986.42
2012,12,17,05,08,986.42
2012,12,17,05,09,986.42
2012,12,17,05,10,986.49
2012,12,17,05,11,986.49
2012,12,17,05,12,986.56
2012,12,17,05,13,986.59
2012,12,17,05,14,986.62
2012,12,17,05,15,986.62
2012,12,17,05,16,986.62
2012,12,17,05,17,986.66
2012,12,17,05,18,986.69
2012,12,17,05,19,986.69
2012,12,17,05,20,986.66
2012,12,17,05,21,986.76
2012,12,17,05,22,986.83
2012,12,17,05,23,986.86
2012,12,17,05,24,986.86
2012,12,17,05,25,986.83
2012,12,17,05,26,986.90
2012,12,17,05,27,986.96
2012,12,17,05,28,986.96
2012,12,17,05,29,987.03
2012,12,17,05,30,987.06
2012,12,17,05,31,987.00
2012,12,17,05,32,987.10
2012,12,17,05,33,987.07
2012,12,17,05,34,987.17
2012,12,17,05,35,987.17
2012,12,17,05,36,987.13
2012,12,17,05,37,987.23
2012,12,17,05,38,987.27
2012,12,17,05,39,987.27
2012,12,17,05,40,987.34
2012,12,17,05,41,987.40
2012,12,17,05,42,987.51
2012,12,17,05,43,987.51
2012,12,17,05,44,987.45
2012,12,17,05,45,987.57
2012,12,17,05,46,987.57
2012,12,17,05,47,987.54
2012,12,17,05,48,987.54
2012,12,17,05,49,987.67
2012,12,17,05,50,987.64
2012,12,17,05,51,987.65
2012,12,17,05,52,987.78
2012,12,17,05,53,987.81
2012,12,17,05,54,987.85
2012,12,17,05,55,987.95
2012,12,17,05,56,987.88
2012,12,17,05,57,988.05
2012,12,17,05,58,987.98
2012,12,17,05,59,988.05
2012,12,17,06,00,988.01
2012,12,17,06,01,988.01
2012,12,17,06,02,988.08
2012,12,17,06,03,988.11
2012,12,17,06,04,988.25
2012,12,17,06,05,988.22
2012,12,17,06,06,988.22
2012,12,17,06,07,988.25
2012,12,17,06,08,988.45
2012,12,17,06,09,988.35
2012,12,17,06,10,988.45
2012,12,17,06,11,988.52
2012,12,17,06,12,988.55
2012,12,17,06,13,988.62
2012,12,17,06,14,988.66
2012,12,17,06,15,988.67
2012,12,17,06,16,988.79
2012,12,17,06,17,988.79
2012,12,17,06,18,988.79
2012,12,17,06,19,988.93
2012,12,17,06,20,989.00
2012,12,17,06,21,988.96
2012,12,17,06,22,988.93
2012,12,17,06,23,989.10
2012,12,17,06,24,989.13
2012,12,17,06,25,989.20
2012,12,17,06,26,989.20
2012,12,17,06,27,989.23
2012,12,17,06,28,989.27
2012,12,17,06,29,989.33
2012,12,17,06,30,989.30
2012,12,17,06,31,989.37
2012,12,17,06,32,989.40
2012,12,17,06,33,989.47
2012,12,17,06,34,989.57
2012,12,17,06,35,989.60
2012,12,17,06,36,989.65
2012,12,17,06,37,989.77
2012,12,17,06,38,989.81
2012,12,17,06,39,989.88
2012,12,17,06,40,989.94
2012,12,17,06,41,989.91
2012,12,17,06,42,989.98
2012,12,17,06,43,989.98
2012,12,17,06,44,990.05
2012,12,17,06,45,990.18
2012,12,17,06,46,990.21
2012,12,17,06,47,990.18
2012,12,17,06,48,990.16
2012,12,17,06,49,990.28
2012,12,17,06,50,990.28
2012,12,17,06,51,990.38
2012,12,17,06,52,990.35
2012,12,17,06,53,990.35
2012,12,17,06,54,990.38
2012,12,17,06,55,990.42
2012,12,17,06,56,990.42
2012,12,17,06,57,990.45
2012,12,17,06,58,990.52
2012,12,17,06,59,990.55
2012,12,17,07,00,990.59
2012,12,17,07,01,990.72
2012,12,17,07,02,990.81
2012,12,17,07,03,990.69
2012,12,17,07,04,990.76
2012,12,17,07,05,990.86
2012,12,17,07,06,990.79
2012,12,17,07,07,990.89
2012,12,17,07,08,990.96
2012,12,17,07,09,990.96
2012,12,17,07,10,990.97
2012,12,17,07,11,991.16
2012,12,17,07,12,991.16
2012,12,17,07,13,991.13
2012,12,17,07,14,991.09
2012,12,17,07,15,991.23
2012,12,17,07,16,991.17
2012,12,17,07,17,991.33
2012,12,17,07,18,991.33
2012,12,17,07,19,991.37
2012,12,17,07,20,991.34
2012,12,17,07,21,991.47
2012,12,17,07,22,991.40
2012,12,17,07,23,991.51
2012,12,17,07,24,991.64
2012,12,17,07,25,991.60
2012,12,17,07,26,991.64
2012,12,17,07,27,991.77
2012,12,17,07,28,991.70
2012,12,17,07,29,991.74
2012,12,17,07,30,991.91
2012,12,17,07,31,991.95
2012,12,17,07,32,992.11
2012,12,17,07,33,992.18
2012,12,17,07,34,992.14
2012,12,17,07,35,992.11
2012,12,17,07,36,992.12
2012,12,17,07,37,991.74
2012,12,17,07,38,991.94
2012,12,17,07,39,991.98
2012,12,17,07,40,991.99
2012,12,17,07,41,992.10
2012,12,17,07,42,992.02
2012,12,17,07,43,992.11
2012,12,17,07,44,992.04
2012,12,17,07,45,992.14
2012,12,17,07,46,992.08
2012,12,17,07,47,992.08
2012,12,17,07,48,992.14
2012,12,17,07,49,992.04
2012,12,17,07,50,992.11
2012,12,17,07,51,992.11
2012,12,17,07,52,992.18
2012,12,17,07,53,992.28
2012,12,17,07,54,992.31
2012,12,17,07,55,992.35
2012,12,17,07,56,992.38
2012,12,17,07,57,992.38
2012,12,17,07,58,992.45
2012,12,17,07,59,992.48
2012,12,17,08,00,992.58
2012,12,17,08,01,992.55
2012,12,17,08,02,992.72
2012,12,17,08,03,992.72
2012,12,17,08,04,992.72
2012,12,17,08,05,992.82
2012,12,17,08,06,992.83
2012,12,17,08,07,992.92
2012,12,17,08,08,992.99
2012,12,17,08,09,993.03
2012,12,17,08,10,993.23
2012,12,17,08,11,993.23
2012,12,17,08,12,993.30
2012,12,17,08,13,993.33
2012,12,17,08,14,993.33
2012,12,17,08,15,993.26
2012,12,17,08,16,993.36
2012,12,17,08,17,993.40
2012,12,17,08,18,993.40
2012,12,17,08,19,993.57
2012,12,17,08,20,993.53
2012,12,17,08,21,993.58
2012,12,17,08,22,993.67
2012,12,17,08,23,993.77
2012,12,17,08,24,993.80
2012,12,17,08,25,993.78
2012,12,17,08,26,993.91
2012,12,17,08,27,993.84
2012,12,17,08,28,993.88
2012,12,17,08,29,994.04
2012,12,17,08,30,994.14
2012,12,17,08,31,994.18
2012,12,17,08,32,994.24
2012,12,17,08,33,994.31
2012,12,17,08,34,994.19
2012,12,17,08,35,994.32
2012,12,17,08,36,994.48
2012,12,17,08,37,994.45
2012,12,17,08,38,994.52
2012,12,17,08,39,994.52
2012,12,17,08,40,994.48
2012,12,17,08,41,994.63
2012,12,17,08,42,994.79
2012,12,17,08,43,994.89
2012,12,17,08,44,994.82
2012,12,17,08,45,994.89
2012,12,17,08,46,994.90
2012,12,17,08,47,995.09
2012,12,17,08,48,994.92
2012,12,17,08,49,994.96
2012,12,17,08,50,995.06
2012,12,17,08,51,994.99
2012,12,17,08,52,995.06
2012,12,17,08,53,995.03
2012,12,17,08,54,995.16
2012,12,17,08,55,995.06
2012,12,17,08,56,995.07
2012,12,17,08,57,995.16
2012,12,17,08,58,995.09
2012,12,17,08,59,995.20
2012,12,17,09,00,995.40
2012,12,17,09,01,995.40
2012,12,17,09,02,995.43
2012,12,17,09,03,995.46
2012,12,17,09,04,995.40
2012,12,17,09,05,995.44
2012,12,17,09,06,995.56
2012,12,17,09,07,995.44
2012,12,17,09,08,995.56
2012,12,17,09,09,995.53
2012,12,17,09,10,995.53
2012,12,17,09,11,995.60
2012,12,17,09,12,995.70
2012,12,17,09,13,995.68
2012,12,17,09,14,995.90
2012,12,17,09,15,995.94
2012,12,17,09,16,995.97
2012,12,17,09,17,996.01
2012,12,17,09,18,996.05
2012,12,17,09,19,996.24
2012,12,17,09,20,996.48
2012,12,17,09,21,996.34
2012,12,17,09,22,996.38
2012,12,17,09,23,996.41
2012,12,17,09,24,996.45
2012,12,17,09,25,996.55
2012,12,17,09,26,996.51
2012,12,17,09,27,996.72
2012,12,17,09,28,996.75
2012,12,17,09,29,996.72
2012,12,17,09,30,996.78
2012,12,17,09,31,996.95
2012,12,17,09,32,996.92
2012,12,17,09,33,997.16
2012,12,17,09,34,996.99
2012,12,17,09,35,997.05
2012,12,17,09,36,997.26
2012,12,17,09,37,997.09
2012,12,17,09,38,996.99
2012,12,17,09,39,996.99
2012,12,17,09,40,997.09
2012,12,17,09,41,997.16
2012,12,17,09,42,997.16
2012,12,17,09,43,997.19
2012,12,17,09,44,997.29
2012,12,17,09,45,997.38
2012,12,17,09,46,997.22
2012,12,17,09,47,997.19
2012,12,17,09,48,997.26
2012,12,17,09,49,997.29
2012,12,17,09,50,997.19
2012,12,17,09,51,997.34
2012,12,17,09,52,997.43
2012,12,17,09,53,997.43
2012,12,17,09,54,997.46
2012,12,17,09,55,997.43
2012,12,17,09,56,997.53
2012,12,17,09,57,997.60
2012,12,17,09,58,997.66
2012,12,17,09,59,997.71
2012,12,17,10,00,997.80
2012,12,17,10,01,997.91
2012,12,17,10,02,998.01
2012,12,17,10,03,998.21
2012,12,17,10,04,998.22
2012,12,17,10,05,998.41
2012,12,17,10,06,998.31
2012,12,17,10,07,998.34
2012,12,17,10,08,998.44
2012,12,17,10,09,998.51
2012,12,17,10,10,998.54
2012,12,17,10,11,998.58
2012,12,17,10,12,998.65
2012,12,17,10,13,998.67
2012,12,17,10,14,998.58
2012,12,17,10,15,998.58
2012,12,17,10,16,998.54
2012,12,17,10,17,998.53
2012,12,17,10,18,998.44
2012,12,17,10,19,998.61
2012,12,17,10,20,998.58
2012,12,17,10,21,998.61
2012,12,17,10,22,998.68
2012,12,17,10,23,998.68
2012,12,17,10,24,998.61
2012,12,17,10,25,998.71
2012,12,17,10,26,998.72
2012,12,17,10,27,998.85
2012,12,17,10,28,998.82
2012,12,17,10,29,998.82
2012,12,17,10,30,998.83
2012,12,17,10,31,999.02
2012,12,17,10,32,999.05
2012,12,17,10,33,999.12
2012,12,17,10,34,999.12
2012,12,17,10,35,999.19
2012,12,17,10,36,999.29
2012,12,17,10,37,999.36
2012,12,17,10,38,999.32
2012,12,17,10,39,999.36
2012,12,17,10,40,999.46
2012,12,17,10,41,999.22
2012,12,17,10,42,999.22
2012,12,17,10,43,999.27
2012,12,17,10,44,999.43
2012,12,17,10,45,999.43
2012,12,17,10,46,999.32
2012,12,17,10,47,999.23
2012,12,17,10,48,999.46
2012,12,17,10,49,999.53
2012,12,17,10,50,999.49
2012,12,17,10,51,999.59
2012,12,17,10,52,999.39
2012,12,17,10,53,999.56
2012,12,17,10,54,999.48
2012,12,17,10,55,999.39
2012,12,17,10,56,999.43
2012,12,17,10,57,999.56
2012,12,17,10,58,999.49
2012,12,17,10,59,999.53
2012,12,17,11,00,999.63
2012,12,17,11,01,999.73
2012,12,17,11,02,999.82
2012,12,17,11,03,1000.10
2012,12,17,11,04,999.83
2012,12,17,11,05,1000.01
2012,12,17,11,06,1000.14
2012,12,17,11,07,1000.20
2012,12,17,11,08,1000.15
2012,12,17,11,09,1000.24
2012,12,17,11,10,1000.31
2012,12,17,11,11,1000.41
2012,12,17,11,12,1000.32
2012,12,17,11,13,1000.43
2012,12,17,11,14,1000.34
2012,12,17,11,15,1000.43
2012,12,17,11,16,1000.24
2012,12,17,11,17,1000.27
2012,12,17,11,18,1000.35
2012,12,17,11,19,1000.48
2012,12,17,11,20,1000.51
2012,12,17,11,21,1000.64
2012,12,17,11,22,1000.58
2012,12,17,11,23,1000.51
2012,12,17,11,24,1000.51
2012,12,17,11,25,1000.59
2012,12,17,11,26,1000.78
2012,12,17,11,27,1000.64
2012,12,17,11,28,1000.71
2012,12,17,11,29,1000.78
2012,12,17,11,30,1000.78
2012,12,17,11,31,1000.88
2012,12,17,11,32,1001.21
2012,12,17,11,33,1001.05
2012,12,17,11,34,1001.22
2012,12,17,11,35,1001.15
2012,12,17,11,36,1001.19
2012,12,17,11,37,1001.15
2012,12,17,11,38,1001.15
2012,12,17,11,39,1001.04
2012,12,17,11,40,1000.81
2012,12,17,11,41,1000.64
2012,12,17,11,42,1000.68
2012,12,17,11,43,1000.78
2012,12,17,11,44,1000.85
2012,12,17,11,45,1000.85
2012,12,17,11,46,1000.88
2012,12,17,11,47,1000.85
2012,12,17,11,48,1000.81
2012,12,17,11,49,1000.85
2012,12,17,11,50,1000.85
2012,12,17,11,51,1000.81
2012,12,17,11,52,1000.78
2012,12,17,11,53,1000.88
2012,12,17,11,54,1000.95
2012,12,17,11,55,1000.96
2012,12,17,11,56,1001.05
2012,12,17,11,57,1001.02
2012,12,17,11,58,1001.15
2012,12,17,11,59,1001.19
2012,12,17,12,00,1001.25
2012,12,17,12,01,1001.29
2012,12,17,12,02,1001.39
2012,12,17,12,03,1001.29
2012,12,17,12,04,1001.42
2012,12,17,12,05,1001.46
2012,12,17,12,06,1001.49
2012,12,17,12,07,1001.49
2012,12,17,12,08,1001.42
2012,12,17,12,09,1001.29
2012,12,17,12,10,1001.26
2012,12,17,12,11,1001.36
2012,12,17,12,12,1001.49
2012,12,17,12,13,1001.46
2012,12,17,12,14,1001.39
2012,12,17,12,15,1001.33
2012,12,17,12,16,1001.55
2012,12,17,12,17,1001.36
2012,12,17,12,18,1001.49
2012,12,17,12,19,1001.42
2012,12,17,12,20,1001.32
2012,12,17,12,21,1001.32
2012,12,17,12,22,1001.39
2012,12,17,12,23,1001.29
2012,12,17,12,24,1001.32
2012,12,17,12,25,1001.39
2012,12,17,12,26,1001.46
2012,12,17,12,27,1001.73
2012,12,17,12,28,1001.70
2012,12,17,12,29,1001.81
2012,12,17,12,30,1001.93
2012,12,17,12,31,1001.92
2012,12,17,12,32,1002.24
2012,12,17,12,33,1002.24
2012,12,17,12,34,1002.53
2012,12,17,12,35,1002.30
2012,12,17,12,36,1002.44
2012,12,17,12,37,1002.43
2012,12,17,12,38,1002.34
2012,12,17,12,39,1002.51
2012,12,17,12,40,1002.54
2012,12,17,12,41,1002.46
2012,12,17,12,42,1002.34
2012,12,17,12,43,1002.34
2012,12,17,12,44,1002.24
2012,12,17,12,45,1002.13
2012,12,17,12,46,1002.07
2012,12,17,12,47,1002.03
2012,12,17,12,48,1002.03
2012,12,17,12,49,1002.03
2012,12,17,12,50,1002.07
2012,12,17,12,51,1002.03
2012,12,17,12,52,1002.00
2012,12,17,12,53,1002.03
2012,12,17,12,54,1002.03
2012,12,17,12,55,1002.03
2012,12,17,12,56,1002.03
2012,12,17,12,57,1002.03
2012,12,17,12,58,1001.97
2012,12,17,12,59,1002.00
2012,12,17,13,00,1002.00
2012,12,17,13,01,1001.93
2012,12,17,13,02,1002.00
2012,12,17,13,03,1001.97
2012,12,17,13,04,1002.07
2012,12,17,13,05,1002.10
2012,12,17,13,06,1002.07
2012,12,17,13,07,1002.07
2012,12,17,13,08,1002.10
2012,12,17,13,09,1002.07
2012,12,17,13,10,1002.03
2012,12,17,13,11,1002.03
2012,12,17,13,12,1002.00
2012,12,17,13,13,1002.07
2012,12,17,13,14,1002.07
2012,12,17,13,15,1002.17
2012,12,17,13,16,1002.10
2012,12,17,13,17,1002.10
2012,12,17,13,18,1002.20
2012,12,17,13,19,1002.13
2012,12,17,13,20,1002.33
2012,12,17,13,21,1002.17
2012,12,17,13,22,1002.44
2012,12,17,13,23,1002.24
2012,12,17,13,24,1002.27
2012,12,17,13,25,1002.30
2012,12,17,13,26,1002.27
2012,12,17,13,27,1002.34
2012,12,17,13,28,1002.27
2012,12,17,13,29,1002.30
2012,12,17,13,30,1002.34
2012,12,17,13,31,1002.30
2012,12,17,13,32,1002.30
2012,12,17,13,33,1002.34
2012,12,17,13,34,1002.24
2012,12,17,13,35,1002.27
2012,12,17,13,36,1002.34
2012,12,17,13,37,1002.30
2012,12,17,13,38,1002.27
2012,12,17,13,39,1002.34
2012,12,17,13,40,1002.41
2012,12,17,13,41,1002.37
2012,12,17,13,42,1002.42
2012,12,17,13,43,1002.54
2012,12,17,13,44,1002.47
2012,12,17,13,45,1002.51
2012,12,17,13,46,1002.47
2012,12,17,13,47,1002.54
2012,12,17,13,48,1002.61
2012,12,17,13,49,1002.71
2012,12,17,13,50,1002.74
2012,12,17,13,51,1002.71
2012,12,17,13,52,1002.78
2012,12,17,13,53,1002.74
2012,12,17,13,54,1002.74
2012,12,17,13,55,1002.95
2012,12,17,13,56,1003.22
2012,12,17,13,57,1003.32
2012,12,17,13,58,1003.46
2012,12,17,13,59,1003.52
2012,12,17,14,00,1003.32
2012,12,17,14,01,1003.29
2012,12,17,14,02,1003.49
2012,12,17,14,03,1003.49
2012,12,17,14,04,1003.52
2012,12,17,14,05,1003.56
2012,12,17,14,06,1003.62
2012,12,17,14,07,1003.52
2012,12,17,14,08,1003.52
2012,12,17,14,09,1003.52
2012,12,17,14,10,1003.52
2012,12,17,14,11,1003.52
2012,12,17,14,12,1003.56
2012,12,17,14,13,1003.49
2012,12,17,14,14,1003.52
2012,12,17,14,15,1003.49
2012,12,17,14,16,1003.56
2012,12,17,14,17,1003.52
2012,12,17,14,18,1003.52
2012,12,17,14,19,1003.56
2012,12,17,14,20,1003.56
2012,12,17,14,21,1003.59
2012,12,17,14,22,1003.56
2012,12,17,14,23,1003.56
2012,12,17,14,24,1003.56
2012,12,17,14,25,1003.59
2012,12,17,14,26,1003.66
2012,12,17,14,27,1003.73
2012,12,17,14,28,1003.69
2012,12,17,14,29,1003.66
2012,12,17,14,30,1003.86
2012,12,17,14,31,1003.93
2012,12,17,14,32,1004.00
2012,12,17,14,33,1004.00
2012,12,17,14,34,1004.06
2012,12,17,14,35,1004.13
2012,12,17,14,36,1004.17
2012,12,17,14,37,1004.13
2012,12,17,14,38,1004.17
2012,12,17,14,39,1004.20
2012,12,17,14,40,1004.20
2012,12,17,14,41,1004.37
2012,12,17,14,42,1004.34
2012,12,17,14,43,1004.30
2012,12,17,14,44,1004.31
2012,12,17,14,45,1004.57
2012,12,17,14,46,1004.44
2012,12,17,14,47,1004.35
2012,12,17,14,48,1004.47
2012,12,17,14,49,1004.30
2012,12,17,14,50,1004.40
2012,12,17,14,51,1004.27
2012,12,17,14,52,1004.23
2012,12,17,14,53,1004.30
2012,12,17,14,54,1004.23
2012,12,17,14,55,1004.34
2012,12,17,14,56,1004.27
2012,12,17,14,57,1004.30
2012,12,17,14,58,1004.41
2012,12,17,14,59,1004.54
2012,12,17,15,00,1004.50
2012,12,17,15,01,1004.54
2012,12,17,15,02,1004.57
2012,12,17,15,03,1004.54
2012,12,17,15,04,1004.54
2012,12,17,15,05,1004.61
2012,12,17,15,06,1004.61
2012,12,17,15,07,1004.67
2012,12,17,15,08,1004.64
2012,12,17,15,09,1004.78
2012,12,17,15,10,1004.81
2012,12,17,15,11,1004.88
2012,12,17,15,12,1004.95
2012,12,17,15,13,1005.11
2012,12,17,15,14,1004.98
2012,12,17,15,15,1005.05
2012,12,17,15,16,1005.08
2012,12,17,15,17,1004.98
2012,12,17,15,18,1004.97
2012,12,17,15,19,1004.88
2012,12,17,15,20,1004.88
2012,12,17,15,21,1004.95
2012,12,17,15,22,1004.95
2012,12,17,15,23,1004.95
2012,12,17,15,24,1005.01
2012,12,17,15,25,1004.98
2012,12,17,15,26,1004.98
2012,12,17,15,27,1005.11
2012,12,17,15,28,1005.08
2012,12,17,15,29,1005.11
2012,12,17,15,30,1005.11
2012,12,17,15,31,1005.11
2012,12,17,15,32,1005.15
2012,12,17,15,33,1005.18
2012,12,17,15,34,1005.28
2012,12,17,15,35,1005.28
2012,12,17,15,36,1005.28
2012,12,17,15,37,1005.40
2012,12,17,15,38,1005.49
2012,12,17,15,39,1005.22
2012,12,17,15,40,1005.22
2012,12,17,15,41,1005.18
2012,12,17,15,42,1005.18
2012,12,17,15,43,1005.22
2012,12,17,15,44,1005.32
2012,12,17,15,45,1005.32
2012,12,17,15,46,1005.32
2012,12,17,15,47,1005.35
2012,12,17,15,48,1005.39
2012,12,17,15,49,1005.39
2012,12,17,15,50,1005.42
2012,12,17,15,51,1005.49
2012,12,17,15,52,1005.52
2012,12,17,15,53,1005.59
2012,12,17,15,54,1005.55
2012,12,17,15,55,1005.55
2012,12,17,15,56,1005.52
2012,12,17,15,57,1005.59
2012,12,17,15,58,1005.62
2012,12,17,15,59,1005.62
2012,12,17,16,00,1005.59
2012,12,17,16,01,1005.62
2012,12,17,16,02,1005.69
2012,12,17,16,03,1005.69
2012,12,17,16,04,1005.72
2012,12,17,16,05,1005.72
2012,12,17,16,06,1005.79
2012,12,17,16,07,1005.79
2012,12,17,16,08,1005.76
2012,12,17,16,09,1005.79
2012,12,17,16,10,1005.83
2012,12,17,16,11,1005.83
2012,12,17,16,12,1005.76
2012,12,17,16,13,1005.79
2012,12,17,16,14,1005.79
2012,12,17,16,15,1005.76
2012,12,17,16,16,1005.72
2012,12,17,16,17,1005.72
2012,12,17,16,18,1005.76
2012,12,17,16,19,1005.79
2012,12,17,16,20,1005.76
2012,12,17,16,21,1005.76
2012,12,17,16,22,1005.83